PDT,Max TemperatureF,Mean TemperatureF,Min TemperatureF,Max Dew PointF,MeanDew PointF,Min DewpointF,Max Humidity, Mean Humidity, Min Humidity, Max Sea Level PressureIn, Mean Sea Level PressureIn, Min Sea Level PressureIn, Max VisibilityMiles, Mean VisibilityMiles, Min VisibilityMiles, Max Wind SpeedMPH, Mean Wind SpeedMPH, Max Gust SpeedMPH,PrecipitationIn, CloudCover, Events, WindDirDegrees
2012-10-1,75,58,41,43,35,30,87,45,22,30.31,30.15,29.92,10,10,10,13,4,18,0.00,0,,179
2012-10-2,71,58,42,45,31,10,67,41,20,30.15,29.97,29.88,10,10,10,28,10,34,0.00,1,,251
2012-10-3,57,45,33,37,31,18,100,64,31,30.44,30.36,30.18,10,10,7,20,10,26,0.02,0,,37
2012-10-4,55,44,30,30,23,12,75,48,23,30.36,30.32,30.28,10,10,10,20,11,24,0.00,0,,36
2012-10-5,59,44,28,39,21,3,80,49,11,30.41,30.35,30.31,10,10,0,17,8,21,0.00,0,,46
2012-10-6,62,45,28,61,21,3,100,49,11,30.38,30.30,30.22,10,9,2,13,5,,0.00,0,,60
2012-10-7,66,46,26,36,26,19,93,51,18,30.22,30.11,29.99,10,10,10,12,5,18,0.00,0,,120
2012-10-8,68,50,33,36,29,23,100,51,21,30.00,29.96,29.90,10,10,10,13,5,17,0.00,0,,184
2012-10-9,66,52,39,39,31,1,81,51,11,30.10,30.04,29.98,10,10,10,12,4,,0.00,0,,83
2012-10-10,68,50,33,39,31,3,87,55,13,30.03,29.95,29.88,10,10,8,9,5,,0.00,0,,81
2012-10-11,69,52,35,41,34,5,87,59,12,30.01,29.93,29.83,10,10,7,13,6,,0.00,0,,67
2012-10-12,64,48,32,43,29,0,100,56,10,29.95,29.85,29.81,10,10,2,13,6,,0.00,2,,157
2012-10-13,59,54,48,48,47,39,94,80,63,30.19,30.10,29.95,10,10,3,14,5,18,0.02,8,,205
2012-10-14,66,60,53,52,47,43,94,68,43,30.18,30.06,29.94,10,10,10,17,8,24,0.05,7,,198
2012-10-15,62,58,53,54,50,46,94,81,59,29.94,29.85,29.61,10,10,5,16,10,24,0.68,7,,211
2012-10-16,60,50,39,55,37,25,100,57,29,30.06,29.74,29.46,10,10,10,33,20,45,0.00,4,Thunderstorm,246
2012-10-17,51,42,33,36,30,27,87,67,38,30.29,30.22,30.07,10,10,10,13,6,,0.00,1,,216
2012-10-18,60,45,30,43,31,3,93,64,11,30.29,30.14,29.88,10,10,10,12,6,16,0.00,1,,71
2012-10-19,62,53,44,57,43,36,100,69,52,29.88,29.76,29.61,10,10,7,28,9,34,0.11,7,,219
2012-10-20,51,43,35,43,30,19,81,58,30,29.85,29.75,29.63,10,10,10,24,14,31,0.00,3,,241
2012-10-21,46,39,32,36,31,28,100,74,53,29.91,29.88,29.84,10,9,1,14,9,22,0.10,6,,164
2012-10-22,42,37,32,37,32,30,100,84,61,29.85,29.67,29.53,10,10,1,23,13,31,0.10,6,,39
2012-10-23,42,37,32,41,36,32,100,92,76,29.97,29.83,29.68,10,10,7,15,6,20,0.04,7,,170
2012-10-24,44,36,28,39,34,27,100,90,61,30.13,30.02,29.97,10,8,0,13,5,20,0.06,6,,41
2012-10-25,39,36,33,37,35,32,100,93,87,30.42,30.31,30.13,10,9,1,8,4,,0.37,8,,52
2012-10-26,39,36,32,36,33,30,100,89,81,30.41,30.23,30.08,10,9,5,12,4,,0.01,7,,176
2012-10-27,42,38,35,39,38,34,100,92,87,30.08,30.01,29.87,10,8,3,12,4,,0.21,8,,203
2012-10-28,53,46,39,48,44,39,100,90,72,29.93,29.89,29.83,10,9,2,12,4,,0.16,6,,200
2012-10-29,62,53,44,52,47,43,100,81,55,30.05,29.91,29.81,10,9,3,25,8,34,0.44,6,,204
2012-10-30,53,50,46,54,48,43,100,92,76,30.05,29.96,29.91,10,10,5,10,4,,0.45,7,,139
2012-10-31,53,50,48,52,49,46,100,91,82,29.94,29.83,29.74,10,10,5,16,7,18,0.02,5,,42